| time (UTC) | temp F | wind direction | speed MPH | gust MPH | rain 1hr in | rain 24hr in | rain mn in | humidity % | barometer mb |
| 20260509221551 | 61 | 290 | 12.0 | 26.0 | 0.00 | 0.21 | 0.00 | 84 | 999.2 |
| 20260509221047 | 60 | 292 | 12.0 | 26.0 | 0.00 | 0.21 | 0.00 | 84 | 999.1 |
| 20260509220540 | 61 | 252 | 13.0 | 23.0 | 0.00 | 0.21 | 0.00 | 84 | 999.2 |
| 20260509220048 | 60 | 259 | 11.0 | 23.0 | 0.00 | 0.21 | 0.00 | 84 | 999.2 |
| 20260509215539 | 60 | 306 | 13.0 | 23.0 | 0.00 | 0.21 | 0.00 | 85 | 999.2 |
| 20260509215039 | 60 | 247 | 12.0 | 23.0 | 0.00 | 0.21 | 0.00 | 86 | 999.1 |
| 20260509214548 | 60 | 264 | 11.0 | 24.0 | 0.00 | 0.21 | 0.00 | 85 | 999.2 |
| 20260509214038 | 60 | 252 | 13.0 | 24.0 | 0.00 | 0.21 | 0.00 | 85 | 999.2 |
| 20260509213538 | 59 | 293 | 12.0 | 21.0 | 0.00 | 0.21 | 0.00 | 85 | 999.2 |
| 20260509213106 | 59 | 261 | 8.0 | 16.0 | 0.00 | 0.21 | 0.00 | 86 | 999.2 |
| 20260509212538 | 59 | 277 | 9.0 | 20.0 | 0.00 | 0.21 | 0.00 | 86 | 999.3 |
| 20260509212039 | 59 | 143 | 8.0 | 20.0 | 0.00 | 0.21 | 0.00 | 86 | 999.2 |
| 20260509211549 | 59 | 258 | 12.0 | 18.0 | 0.00 | 0.21 | 0.00 | 87 | 999.3 |
| 20260509211042 | 59 | 286 | 10.0 | 19.0 | 0.00 | 0.21 | 0.00 | 87 | 999.3 |
| 20260509210540 | 59 | 265 | 10.0 | 19.0 | 0.00 | 0.20 | 0.00 | 88 | 999.3 |
| 20260509205539 | 58 | 285 | 7.0 | 16.0 | 0.00 | 0.20 | 0.00 | 88 | 999.2 |
| 20260509205039 | 58 | 270 | 8.0 | 15.0 | 0.00 | 0.20 | 0.00 | 88 | 999.3 |
| 20260509204553 | 58 | 262 | 8.0 | 19.0 | 0.00 | 0.20 | 0.00 | 88 | 999.3 |
| 20260509204039 | 58 | 266 | 7.0 | 19.0 | 0.00 | 0.20 | 0.00 | 88 | 999.2 |
| 20260509203539 | 58 | 300 | 7.0 | 19.0 | 0.00 | 0.20 | 0.00 | 89 | 999.2 |
| 20260509203049 | 58 | 248 | 6.0 | 19.0 | 0.00 | 0.20 | 0.00 | 89 | 999.2 |
| 20260509202539 | 58 | 298 | 13.0 | 20.0 | 0.00 | 0.20 | 0.00 | 89 | 999.1 |
| 20260509202039 | 57 | 288 | 9.0 | 20.0 | 0.00 | 0.20 | 0.00 | 90 | 999.2 |
| 20260509201550 | 58 | 290 | 11.0 | 20.0 | 0.00 | 0.20 | 0.00 | 90 | 999.1 |
| 20260509201038 | 57 | 252 | 10.0 | 19.0 | 0.00 | 0.20 | 0.00 | 90 | 998.9 |
| 20260509200540 | 57 | 267 | 8.0 | 17.0 | 0.00 | 0.20 | 0.00 | 89 | 998.9 |
| 20260509200103 | 58 | 296 | 9.0 | 17.0 | 0.00 | 0.20 | 0.00 | 87 | 998.9 |
| 20260509195539 | 58 | 285 | 8.0 | 15.0 | 0.00 | 0.20 | 0.00 | 86 | 998.8 |
| 20260509195043 | 58 | 323 | 9.0 | 18.0 | 0.00 | 0.20 | 0.00 | 87 | 998.8 |
| 20260509194549 | 58 | 313 | 9.0 | 18.0 | 0.00 | 0.20 | 0.00 | 86 | 998.7 |
| 20260509194039 | 58 | 265 | 10.0 | 18.0 | 0.00 | 0.20 | 0.00 | 86 | 998.6 |
| 20260509193543 | 58 | 283 | 9.0 | 17.0 | 0.00 | 0.20 | 0.00 | 86 | 998.7 |
| 20260509193053 | 57 | 281 | 8.0 | 16.0 | 0.00 | 0.20 | 0.00 | 86 | 998.8 |
| 20260509192542 | 57 | 293 | 7.0 | 20.0 | 0.00 | 0.20 | 0.00 | 86 | 998.7 |
| 20260509192039 | 58 | 282 | 9.0 | 21.0 | 0.00 | 0.20 | 0.00 | 86 | 998.6 |
| 20260509191549 | 58 | 304 | 12.0 | 21.0 | 0.00 | 0.20 | 0.00 | 85 | 998.3 |
| 20260509191041 | 58 | 267 | 11.0 | 21.0 | 0.00 | 0.20 | 0.00 | 86 | 998.5 |
| 20260509190539 | 58 | 234 | 8.0 | 17.0 | 0.00 | 0.20 | 0.00 | 85 | 998.3 |
| 20260509190047 | 58 | 316 | 10.0 | 20.0 | 0.00 | 0.20 | 0.00 | 84 | 998.3 |
| 20260509185539 | 58 | 277 | 11.0 | 20.0 | 0.00 | 0.20 | 0.00 | 84 | 998.3 |
| 20260509185040 | 58 | 277 | 12.0 | 25.0 | 0.00 | 0.20 | 0.00 | 83 | 998.2 |
| 20260509184554 | 58 | 273 | 12.0 | 25.0 | 0.00 | 0.20 | 0.00 | 84 | 998.3 |
| 20260509184039 | 58 | 278 | 10.0 | 19.0 | 0.00 | 0.20 | 0.00 | 84 | 998.2 |
| 20260509183539 | 58 | 282 | 11.0 | 19.0 | 0.00 | 0.20 | 0.00 | 85 | 998.2 |
| 20260509183048 | 57 | 281 | 12.0 | 19.0 | 0.00 | 0.20 | 0.00 | 86 | 998.3 |
| 20260509182537 | 57 | 300 | 11.0 | 19.0 | 0.00 | 0.20 | 0.00 | 86 | 998.3 |
| 20260509182036 | 57 | 274 | 9.0 | 15.0 | 0.00 | 0.20 | 0.00 | 86 | 998.2 |
| 20260509181557 | 56 | 314 | 8.0 | 12.0 | 0.00 | 0.20 | 0.00 | 88 | 998.3 |
| 20260509181041 | 55 | 256 | 4.0 | 10.0 | 0.00 | 0.20 | 0.00 | 91 | 998.4 |
| 20260509180540 | 55 | 277 | 1.0 | 9.0 | 0.00 | 0.20 | 0.00 | 91 | 998.4 |
| 20260509180048 | 55 | 284 | 4.0 | 9.0 | 0.00 | 0.20 | 0.00 | 91 | 998.4 |
| 20260509175539 | 55 | 257 | 1.0 | 8.0 | 0.00 | 0.21 | 0.00 | 91 | 998.4 |
| 20260509175039 | 55 | 268 | 1.0 | 8.0 | 0.00 | 0.21 | 0.00 | 91 | 998.3 |
| 20260509174547 | 55 | 265 | 5.0 | 8.0 | 0.00 | 0.21 | 0.00 | 91 | 998.4 |
| 20260509174038 | 54 | 309 | 2.0 | 8.0 | 0.00 | 0.21 | 0.00 | 91 | 998.6 |
| 20260509173538 | 54 | 255 | 1.0 | 8.0 | 0.00 | 0.21 | 0.00 | 91 | 998.6 |
| 20260509173049 | 54 | 243 | 2.0 | 11.0 | 0.00 | 0.21 | 0.00 | 91 | 998.6 |
| 20260509172539 | 54 | 253 | 2.0 | 11.0 | 0.00 | 0.21 | 0.00 | 91 | 998.7 |
| 20260509172039 | 54 | 0 | 0.0 | 6.0 | 0.00 | 0.21 | 0.00 | 91 | 998.7 |
| 20260509171549 | 54 | 277 | 2.0 | 6.0 | 0.00 | 0.21 | 0.00 | 91 | 998.6 |
| 20260509171039 | 54 | 281 | 2.0 | 7.0 | 0.00 | 0.21 | 0.00 | 90 | 998.6 |
| 20260509170540 | 54 | 274 | 1.0 | 8.0 | 0.00 | 0.21 | 0.00 | 90 | 998.5 |
| 20260509170050 | 55 | 264 | 1.0 | 8.0 | 0.00 | 0.21 | 0.00 | 90 | 998.5 |
| 20260509165541 | 55 | 273 | 1.0 | 7.0 | 0.00 | 0.21 | 0.00 | 90 | 998.4 |
| 20260509165039 | 55 | 273 | 2.0 | 7.0 | 0.00 | 0.21 | 0.00 | 91 | 998.5 |
| 20260509164545 | 55 | 275 | 0.0 | 4.0 | 0.00 | 0.21 | 0.00 | 91 | 998.4 |
| 20260509164039 | 55 | 275 | 1.0 | 4.0 | 0.00 | 0.21 | 0.00 | 91 | 998.4 |
| 20260509163539 | 54 | 271 | 1.0 | 4.0 | 0.00 | 0.21 | 0.00 | 91 | 998.5 |
| 20260509163050 | 54 | 271 | 2.0 | 4.0 | 0.00 | 0.21 | 0.00 | 91 | 998.6 |
| 20260509162540 | 54 | 271 | 1.0 | 8.0 | 0.00 | 0.21 | 0.00 | 91 | 998.6 |
| 20260509162040 | 54 | 292 | 1.0 | 8.0 | 0.00 | 0.21 | 0.00 | 91 | 998.6 |
| 20260509161547 | 54 | 264 | 2.0 | 8.0 | 0.00 | 0.21 | 0.00 | 91 | 998.7 |
| 20260509161039 | 54 | 259 | 2.0 | 7.0 | 0.00 | 0.21 | 0.00 | 91 | 998.6 |
| 20260509160539 | 54 | 284 | 2.0 | 6.0 | 0.00 | 0.21 | 0.00 | 91 | 998.7 |
| 20260509160048 | 54 | 244 | 1.0 | 5.0 | 0.00 | 0.21 | 0.00 | 91 | 998.7 |
| 20260509155539 | 54 | 263 | 1.0 | 8.0 | 0.00 | 0.21 | 0.00 | 91 | 998.8 |
| 20260509155039 | 55 | 279 | 2.0 | 8.0 | 0.00 | 0.21 | 0.00 | 91 | 998.7 |
| 20260509154549 | 54 | 266 | 2.0 | 6.0 | 0.00 | 0.21 | 0.00 | 91 | 998.9 |
| 20260509154043 | 55 | 54 | 1.0 | 9.0 | 0.00 | 0.21 | 0.00 | 91 | 998.9 |
| 20260509153539 | 55 | 277 | 3.0 | 9.0 | 0.00 | 0.21 | 0.00 | 91 | 998.9 |
| 20260509153059 | 55 | 265 | 5.0 | 9.0 | 0.00 | 0.21 | 0.00 | 91 | 999.0 |
| 20260509152539 | 55 | 263 | 2.0 | 7.0 | 0.00 | 0.21 | 0.00 | 91 | 999.0 |
| 20260509152039 | 54 | 251 | 1.0 | 7.0 | 0.00 | 0.21 | 0.00 | 91 | 999.0 |
| 20260509151554 | 54 | 310 | 1.0 | 8.0 | 0.00 | 0.21 | 0.00 | 91 | 999.0 |
| 20260509151039 | 54 | 284 | 3.0 | 9.0 | 0.00 | 0.21 | 0.00 | 91 | 999.0 |
| 20260509150539 | 54 | 288 | 2.0 | 9.0 | 0.00 | 0.21 | 0.00 | 91 | 999.2 |
| 20260509150049 | 54 | 227 | 2.0 | 9.0 | 0.00 | 0.21 | 0.00 | 91 | 999.2 |
| 20260509145540 | 54 | 264 | 0.0 | 6.0 | 0.00 | 0.21 | 0.00 | 90 | 999.2 |
| 20260509145040 | 54 | 263 | 0.0 | 6.0 | 0.00 | 0.21 | 0.00 | 90 | 999.3 |
| 20260509144552 | 54 | 263 | 3.0 | 6.0 | 0.00 | 0.21 | 0.00 | 90 | 999.3 |
| 20260509144039 | 54 | 263 | 1.0 | 4.0 | 0.00 | 0.21 | 0.00 | 90 | 999.4 |
| 20260509143545 | 54 | 263 | 1.0 | 4.0 | 0.00 | 0.21 | 0.00 | 90 | 999.3 |
| 20260509143049 | 54 | 263 | 1.0 | 4.0 | 0.00 | 0.21 | 0.00 | 89 | 999.3 |
| 20260509142539 | 54 | 263 | 2.0 | 4.0 | 0.00 | 0.21 | 0.00 | 89 | 999.4 |
| 20260509142039 | 55 | 263 | 1.0 | 4.0 | 0.00 | 0.21 | 0.00 | 87 | 999.4 |
| 20260509141546 | 55 | 263 | 1.0 | 4.0 | 0.00 | 0.21 | 0.00 | 86 | 999.4 |
| 20260509141040 | 56 | 263 | 1.0 | 14.0 | 0.00 | 0.21 | 0.00 | 85 | 999.4 |
| 20260509140539 | 56 | 0 | 5.0 | 14.0 | 0.00 | 0.21 | 0.00 | 85 | 999.4 |
| 20260509140051 | 56 | 279 | 8.0 | 17.0 | 0.00 | 0.21 | 0.00 | 85 | 999.4 |
| 20260509135539 | 56 | 278 | 9.0 | 17.0 | 0.00 | 0.21 | 0.00 | 85 | 999.4 |
| 20260509135036 | 56 | 307 | 8.0 | 17.0 | 0.00 | 0.21 | 0.00 | 85 | 999.3 |
| 20260509134542 | 56 | 260 | 9.0 | 17.0 | 0.00 | 0.21 | 0.00 | 85 | 999.3 |
| 20260509134034 | 56 | 272 | 8.0 | 16.0 | 0.00 | 0.21 | 0.00 | 86 | 999.3 |
| 20260509133538 | 56 | 304 | 6.0 | 13.0 | 0.00 | 0.21 | 0.00 | 86 | 999.5 |
| 20260509133048 | 56 | 298 | 5.0 | 13.0 | 0.00 | 0.21 | 0.00 | 85 | 999.4 |
| 20260509132539 | 56 | 290 | 6.0 | 13.0 | 0.00 | 0.21 | 0.00 | 85 | 999.2 |
| 20260509132035 | 57 | 256 | 7.0 | 18.0 | 0.00 | 0.21 | 0.00 | 84 | 999.1 |
| 20260509131549 | 57 | 256 | 7.0 | 18.0 | 0.00 | 0.21 | 0.00 | 83 | 999.3 |
| 20260509131035 | 57 | 269 | 9.0 | 19.0 | 0.00 | 0.21 | 0.00 | 83 | 999.3 |
| 20260509130535 | 57 | 288 | 11.0 | 20.0 | 0.00 | 0.21 | 0.00 | 83 | 999.3 |
| 20260509130047 | 57 | 277 | 13.0 | 21.0 | 0.00 | 0.21 | 0.00 | 82 | 999.2 |
| 20260509125542 | 57 | 259 | 13.0 | 21.0 | 0.00 | 0.25 | 0.00 | 82 | 999.3 |
| 20260509125038 | 57 | 245 | 8.0 | 18.0 | 0.00 | 0.25 | 0.00 | 84 | 999.4 |
| 20260509124545 | 57 | 314 | 6.0 | 16.0 | 0.00 | 0.25 | 0.00 | 83 | 999.3 |
| 20260509124038 | 57 | 256 | 7.0 | 17.0 | 0.00 | 0.25 | 0.00 | 83 | 999.4 |
| 20260509123535 | 57 | 277 | 9.0 | 18.0 | 0.00 | 0.25 | 0.00 | 83 | 999.4 |
| 20260509123050 | 57 | 266 | 9.0 | 18.0 | 0.00 | 0.25 | 0.00 | 82 | 999.3 |
| 20260509122536 | 57 | 331 | 8.0 | 16.0 | 0.00 | 0.25 | 0.00 | 82 | 999.3 |
| 20260509122036 | 57 | 254 | 9.0 | 14.0 | 0.00 | 0.25 | 0.00 | 82 | 999.2 |
| 20260509121547 | 57 | 281 | 8.0 | 14.0 | 0.00 | 0.25 | 0.00 | 82 | 999.2 |
| 20260509121036 | 57 | 272 | 7.0 | 14.0 | 0.00 | 0.25 | 0.00 | 82 | 999.2 |
| 20260509120536 | 57 | 246 | 6.0 | 14.0 | 0.00 | 0.25 | 0.00 | 82 | 999.4 |
| 20260509120058 | 57 | 283 | 6.0 | 17.0 | 0.00 | 0.25 | 0.00 | 81 | 999.5 |
| 20260509115535 | 57 | 253 | 8.0 | 17.0 | 0.00 | 0.39 | 0.25 | 81 | 999.4 |
| 20260509115035 | 57 | 265 | 7.0 | 17.0 | 0.00 | 0.39 | 0.25 | 81 | 999.5 |
| 20260509114543 | 57 | 250 | 8.0 | 16.0 | 0.00 | 0.39 | 0.25 | 81 | 999.6 |
| 20260509114037 | 57 | 281 | 5.0 | 18.0 | 0.00 | 0.39 | 0.25 | 81 | 999.6 |
| 20260509113534 | 57 | 300 | 8.0 | 18.0 | 0.00 | 0.39 | 0.25 | 81 | 999.5 |
| 20260509113053 | 57 | 281 | 7.0 | 18.0 | 0.00 | 0.39 | 0.25 | 81 | 999.6 |
| 20260509112538 | 57 | 294 | 7.0 | 14.0 | 0.00 | 0.39 | 0.25 | 81 | 999.6 |
| 20260509112036 | 57 | 339 | 8.0 | 13.0 | 0.00 | 0.39 | 0.25 | 80 | 999.6 |
| 20260509111542 | 57 | 293 | 7.0 | 13.0 | 0.00 | 0.39 | 0.25 | 80 | 999.6 |
| 20260509111036 | 57 | 242 | 8.0 | 13.0 | 0.00 | 0.39 | 0.25 | 81 | 999.6 |
| 20260509110538 | 57 | 259 | 6.0 | 13.0 | 0.00 | 0.39 | 0.25 | 81 | 999.6 |
| 20260509110053 | 57 | 252 | 6.0 | 14.0 | 0.00 | 0.39 | 0.25 | 81 | 999.7 |
| 20260509105535 | 57 | 275 | 8.0 | 17.0 | 0.00 | 0.40 | 0.25 | 81 | 999.8 |
| 20260509105035 | 57 | 291 | 7.0 | 17.0 | 0.00 | 0.40 | 0.25 | 81 | 999.7 |
| 20260509104547 | 57 | 269 | 6.0 | 15.0 | 0.00 | 0.40 | 0.25 | 82 | 999.8 |
| 20260509104035 | 57 | 250 | 7.0 | 18.0 | 0.00 | 0.40 | 0.25 | 81 | 999.7 |
| 20260509103538 | 57 | 254 | 8.0 | 18.0 | 0.00 | 0.40 | 0.25 | 81 | 999.6 |
| 20260509103048 | 57 | 294 | 7.0 | 18.0 | 0.00 | 0.40 | 0.25 | 81 | 999.6 |
| 20260509102538 | 57 | 265 | 6.0 | 15.0 | 0.00 | 0.40 | 0.25 | 81 | 999.7 |
| 20260509102040 | 57 | 277 | 8.0 | 17.0 | 0.00 | 0.40 | 0.25 | 81 | 999.7 |
| 20260509101553 | 57 | 294 | 9.0 | 18.0 | 0.00 | 0.40 | 0.25 | 80 | 999.6 |
| 20260509101039 | 57 | 259 | 10.0 | 18.0 | 0.00 | 0.40 | 0.25 | 81 | 999.7 |
| 20260509100540 | 56 | 279 | 7.0 | 14.0 | 0.00 | 0.40 | 0.25 | 81 | 999.7 |
| 20260509100045 | 56 | 304 | 6.0 | 13.0 | 0.00 | 0.40 | 0.25 | 81 | 999.6 |
| 20260509095540 | 57 | 265 | 5.0 | 15.0 | 0.00 | 0.44 | 0.25 | 80 | 999.7 |
| 20260509095039 | 57 | 264 | 6.0 | 15.0 | 0.00 | 0.44 | 0.25 | 80 | 999.7 |
| 20260509094548 | 57 | 290 | 8.0 | 14.0 | 0.00 | 0.44 | 0.25 | 79 | 999.7 |
| 20260509094039 | 57 | 271 | 7.0 | 16.0 | 0.00 | 0.44 | 0.25 | 80 | 999.8 |
| 20260509093539 | 57 | 254 | 7.0 | 16.0 | 0.00 | 0.44 | 0.25 | 81 | 999.8 |
| 20260509093053 | 56 | 269 | 8.0 | 16.0 | 0.00 | 0.44 | 0.25 | 81 | 999.6 |
| 20260509092538 | 56 | 243 | 7.0 | 14.0 | 0.00 | 0.44 | 0.25 | 82 | 999.5 |
| 20260509092043 | 56 | 268 | 5.0 | 14.0 | 0.00 | 0.44 | 0.25 | 82 | 999.5 |
| 20260509091602 | 56 | 290 | 5.0 | 17.0 | 0.00 | 0.44 | 0.25 | 82 | 999.6 |
| 20260509091039 | 56 | 250 | 7.0 | 17.0 | 0.00 | 0.44 | 0.25 | 82 | 999.5 |
| 20260509090540 | 56 | 242 | 5.0 | 13.0 | 0.00 | 0.44 | 0.25 | 83 | 999.4 |
| 20260509090047 | 56 | 260 | 7.0 | 14.0 | 0.00 | 0.44 | 0.25 | 82 | 999.3 |
| 20260509085538 | 56 | 256 | 7.0 | 14.0 | 0.00 | 0.44 | 0.25 | 82 | 999.4 |
| 20260509085042 | 56 | 257 | 7.0 | 15.0 | 0.00 | 0.44 | 0.25 | 82 | 999.4 |
| 20260509084545 | 56 | 250 | 8.0 | 15.0 | 0.00 | 0.44 | 0.25 | 81 | 999.5 |
| 20260509084039 | 56 | 249 | 9.0 | 14.0 | 0.00 | 0.44 | 0.25 | 81 | 999.5 |
| 20260509083538 | 56 | 241 | 6.0 | 15.0 | 0.00 | 0.44 | 0.25 | 81 | 999.4 |
| 20260509083044 | 56 | 254 | 6.0 | 16.0 | 0.00 | 0.44 | 0.25 | 81 | 999.2 |
| 20260509082539 | 56 | 281 | 8.0 | 16.0 | 0.00 | 0.44 | 0.25 | 81 | 999.1 |
| 20260509082042 | 56 | 284 | 8.0 | 18.0 | 0.00 | 0.44 | 0.25 | 81 | 999.1 |
| 20260509081551 | 56 | 277 | 10.0 | 18.0 | 0.00 | 0.44 | 0.25 | 81 | 999.2 |
| 20260509081039 | 56 | 277 | 10.0 | 17.0 | 0.00 | 0.44 | 0.25 | 81 | 999.1 |
| 20260509080538 | 56 | 284 | 11.0 | 17.0 | 0.00 | 0.44 | 0.25 | 81 | 999.0 |
| 20260509080057 | 56 | 290 | 10.0 | 16.0 | 0.00 | 0.44 | 0.25 | 81 | 999.1 |
| 20260509075542 | 56 | 323 | 8.0 | 14.0 | 0.00 | 0.44 | 0.25 | 82 | 999.1 |
| 20260509075042 | 56 | 298 | 9.0 | 17.0 | 0.00 | 0.44 | 0.25 | 81 | 999.3 |
| 20260509074552 | 56 | 289 | 11.0 | 17.0 | 0.00 | 0.44 | 0.25 | 81 | 999.4 |
| 20260509074040 | 56 | 288 | 11.0 | 17.0 | 0.00 | 0.44 | 0.25 | 81 | 999.3 |
| 20260509073539 | 56 | 290 | 11.0 | 17.0 | 0.00 | 0.44 | 0.25 | 82 | 999.2 |
| 20260509073122 | 56 | 298 | 7.0 | 13.0 | 0.00 | 0.44 | 0.25 | 83 | 999.3 |
| 20260509072542 | 56 | 251 | 6.0 | 11.0 | 0.00 | 0.44 | 0.25 | 83 | 999.2 |
| 20260509072038 | 56 | 249 | 5.0 | 11.0 | 0.00 | 0.44 | 0.25 | 83 | 999.3 |
| 20260509071549 | 56 | 263 | 5.0 | 11.0 | 0.00 | 0.44 | 0.25 | 82 | 999.4 |
| 20260509071039 | 56 | 240 | 6.0 | 11.0 | 0.00 | 0.44 | 0.25 | 83 | 999.4 |
| 20260509070541 | 56 | 264 | 5.0 | 14.0 | 0.00 | 0.44 | 0.25 | 83 | 999.4 |
| 20260509070055 | 56 | 267 | 6.0 | 14.0 | 0.00 | 0.44 | 0.25 | 83 | 999.5 |
| 20260509065538 | 56 | 252 | 6.0 | 13.0 | 0.00 | 0.44 | 0.25 | 83 | 999.5 |
| 20260509065038 | 56 | 281 | 7.0 | 13.0 | 0.00 | 0.44 | 0.25 | 84 | 999.5 |
| 20260509064548 | 56 | 252 | 4.0 | 13.0 | 0.00 | 0.44 | 0.25 | 83 | 999.5 |
| 20260509064044 | 57 | 297 | 5.0 | 12.0 | 0.00 | 0.44 | 0.25 | 83 | 999.6 |
| 20260509063539 | 57 | 252 | 5.0 | 13.0 | 0.00 | 0.44 | 0.25 | 82 | 999.6 |
| 20260509063059 | 57 | 252 | 7.0 | 13.0 | 0.00 | 0.44 | 0.25 | 82 | 999.5 |
| 20260509062539 | 57 | 300 | 6.0 | 20.0 | 0.00 | 0.44 | 0.25 | 81 | 999.5 |
| 20260509062038 | 58 | 253 | 7.0 | 20.0 | 0.00 | 0.44 | 0.25 | 79 | 999.6 |
| 20260509061556 | 58 | 265 | 8.0 | 18.0 | 0.00 | 0.44 | 0.25 | 80 | 999.5 |
| 20260509061039 | 58 | 299 | 9.0 | 18.0 | 0.00 | 0.44 | 0.25 | 81 | 999.5 |
| 20260509060539 | 58 | 251 | 7.0 | 15.0 | 0.00 | 0.44 | 0.25 | 81 | 999.6 |
| 20260509055538 | 58 | 245 | 9.0 | 17.0 | 0.00 | 0.44 | 0.25 | 82 | 999.6 |
| 20260509055041 | 59 | 242 | 8.0 | 19.0 | 0.00 | 0.44 | 0.25 | 83 | 999.7 |
| 20260509054607 | 59 | 240 | 10.0 | 19.0 | 0.00 | 0.44 | 0.25 | 83 | 999.6 |
| 20260509054038 | 59 | 263 | 9.0 | 17.0 | 0.00 | 0.44 | 0.25 | 84 | 999.6 |
| 20260509053540 | 59 | 296 | 10.0 | 17.0 | 0.00 | 0.44 | 0.25 | 84 | 999.5 |
| 20260509053049 | 59 | 269 | 8.0 | 16.0 | 0.00 | 0.44 | 0.25 | 85 | 999.5 |
| 20260509052538 | 59 | 262 | 8.0 | 16.0 | 0.00 | 0.44 | 0.25 | 85 | 999.4 |
| 20260509052039 | 59 | 250 | 9.0 | 17.0 | 0.00 | 0.44 | 0.25 | 85 | 999.3 |
| 20260509051548 | 59 | 245 | 8.0 | 17.0 | 0.00 | 0.44 | 0.25 | 86 | 999.3 |
| 20260509051041 | 59 | 252 | 9.0 | 15.0 | 0.00 | 0.44 | 0.25 | 86 | 999.2 |
| 20260509050538 | 59 | 263 | 8.0 | 15.0 | 0.00 | 0.44 | 0.25 | 87 | 999.3 |
| 20260509050044 | 59 | 286 | 8.0 | 16.0 | 0.00 | 0.44 | 0.25 | 88 | 999.2 |
| 20260509045539 | 59 | 251 | 8.0 | 17.0 | 0.00 | 0.44 | 0.25 | 87 | 999.1 |
| 20260509045039 | 59 | 261 | 9.0 | 18.0 | 0.00 | 0.44 | 0.25 | 87 | 999.1 |
| 20260509044550 | 59 | 253 | 9.0 | 18.0 | 0.00 | 0.44 | 0.25 | 87 | 999.1 |
| 20260509044038 | 59 | 269 | 8.0 | 16.0 | 0.00 | 0.44 | 0.25 | 88 | 999.1 |
| 20260509043539 | 59 | 258 | 8.0 | 16.0 | 0.00 | 0.44 | 0.25 | 88 | 999.2 |
| 20260509043053 | 59 | 238 | 8.0 | 19.0 | 0.00 | 0.44 | 0.25 | 88 | 999.3 |
| 20260509042541 | 60 | 248 | 10.0 | 19.0 | 0.00 | 0.44 | 0.25 | 87 | 999.1 |
| 20260509042038 | 60 | 249 | 10.0 | 19.0 | 0.00 | 0.44 | 0.25 | 87 | 999.2 |
| 20260509041551 | 60 | 267 | 8.0 | 18.0 | 0.00 | 0.44 | 0.25 | 86 | 999.2 |
| 20260509041041 | 60 | 273 | 8.0 | 18.0 | 0.00 | 0.44 | 0.25 | 86 | 999.2 |
| 20260509040539 | 60 | 274 | 9.0 | 18.0 | 0.00 | 0.44 | 0.25 | 86 | 999.4 |
| 20260509040121 | 61 | 316 | 8.0 | 18.0 | 0.00 | 0.44 | 0.25 | 88 | 999.3 |
| 20260509035539 | 60 | 275 | 9.0 | 18.0 | 0.00 | 0.44 | 0.25 | 87 | 999.5 |
| 20260509035039 | 60 | 301 | 10.0 | 20.0 | 0.00 | 0.44 | 0.25 | 86 | 999.5 |
| 20260509034555 | 60 | 242 | 8.0 | 20.0 | 0.00 | 0.44 | 0.25 | 86 | 999.6 |
| 20260509034038 | 60 | 259 | 11.0 | 20.0 | 0.00 | 0.44 | 0.25 | 85 | 999.4 |
| 20260509033539 | 60 | 238 | 11.0 | 23.0 | 0.00 | 0.44 | 0.25 | 86 | 999.3 |
| 20260509033049 | 60 | 281 | 12.0 | 23.0 | 0.00 | 0.44 | 0.25 | 86 | 999.3 |
| 20260509032540 | 61 | 278 | 9.0 | 26.0 | 0.00 | 0.44 | 0.25 | 87 | 999.2 |
| 20260509032045 | 61 | 241 | 11.0 | 26.0 | 0.00 | 0.44 | 0.25 | 86 | 999.2 |
| 20260509031549 | 61 | 275 | 7.0 | 24.0 | 0.00 | 0.44 | 0.25 | 87 | 999.3 |
| 20260509031038 | 61 | 273 | 11.0 | 24.0 | 0.00 | 0.44 | 0.25 | 86 | 999.2 |
| 20260509030540 | 62 | 250 | 13.0 | 24.0 | 0.00 | 0.44 | 0.25 | 84 | 999.1 |
| 20260509030050 | 62 | 218 | 11.0 | 22.0 | 0.00 | 0.44 | 0.25 | 85 | 998.9 |
| 20260509025544 | 62 | 294 | 14.0 | 25.0 | 0.00 | 0.44 | 0.25 | 83 | 998.8 |
| 20260509025044 | 62 | 256 | 9.0 | 25.0 | 0.00 | 0.44 | 0.25 | 85 | 998.7 |
| 20260509024549 | 62 | 288 | 13.0 | 25.0 | 0.00 | 0.44 | 0.25 | 85 | 998.6 |
| 20260509024039 | 62 | 277 | 11.0 | 24.0 | 0.00 | 0.44 | 0.25 | 86 | 998.6 |
| 20260509023538 | 62 | 286 | 14.0 | 24.0 | 0.00 | 0.44 | 0.25 | 86 | 998.6 |
| 20260509023047 | 62 | 275 | 14.0 | 26.0 | 0.06 | 0.44 | 0.25 | 86 | 998.5 |
| 20260509022541 | 61 | 279 | 15.0 | 26.0 | 0.18 | 0.44 | 0.25 | 86 | 998.5 |
| 20260509022041 | 62 | 280 | 13.0 | 21.0 | 0.19 | 0.44 | 0.25 | 89 | 998.5 |
| 20260509021547 | 61 | 270 | 12.0 | 23.0 | 0.19 | 0.44 | 0.25 | 89 | 998.5 |
| 20260509021040 | 62 | 276 | 10.0 | 24.0 | 0.19 | 0.44 | 0.25 | 89 | 998.7 |
| 20260509020539 | 61 | 269 | 13.0 | 24.0 | 0.19 | 0.44 | 0.25 | 88 | 998.6 |
| 20260509020049 | 61 | 264 | 14.0 | 23.0 | 0.19 | 0.44 | 0.25 | 90 | 998.6 |
| 20260509015541 | 61 | 265 | 13.0 | 23.0 | 0.19 | 0.44 | 0.25 | 90 | 998.6 |
| 20260509015040 | 61 | 296 | 13.0 | 23.0 | 0.19 | 0.44 | 0.25 | 92 | 998.6 |
| 20260509014548 | 60 | 315 | 11.0 | 23.0 | 0.19 | 0.44 | 0.25 | 92 | 998.7 |
| 20260509014041 | 60 | 281 | 12.0 | 19.0 | 0.19 | 0.44 | 0.25 | 92 | 998.8 |
| 20260509013538 | 60 | 267 | 11.0 | 17.0 | 0.18 | 0.44 | 0.25 | 91 | 998.8 |
| 20260509013050 | 61 | 250 | 10.0 | 20.0 | 0.11 | 0.36 | 0.17 | 89 | 999.0 |
| 20260509012539 | 62 | 248 | 10.0 | 20.0 | 0.00 | 0.25 | 0.06 | 87 | 998.9 |
| 20260509012040 | 62 | 298 | 14.0 | 21.0 | 0.00 | 0.25 | 0.06 | 85 | 998.9 |
| 20260509011603 | 62 | 284 | 13.0 | 21.0 | 0.00 | 0.25 | 0.06 | 84 | 999.0 |
| 20260509011043 | 62 | 242 | 10.0 | 21.0 | 0.00 | 0.25 | 0.06 | 87 | 999.1 |
| 20260509010539 | 62 | 266 | 13.0 | 21.0 | 0.00 | 0.25 | 0.06 | 85 | 999.3 |
| 20260509010051 | 62 | 340 | 9.0 | 19.0 | 0.00 | 0.25 | 0.06 | 85 | 999.3 |
| 20260509005539 | 62 | 300 | 13.0 | 21.0 | 0.00 | 0.25 | 0.06 | 84 | 999.4 |
| 20260509005038 | 62 | 298 | 11.0 | 21.0 | 0.00 | 0.25 | 0.06 | 85 | 999.5 |
| 20260509004605 | 62 | 272 | 8.0 | 20.0 | 0.00 | 0.25 | 0.06 | 85 | 999.7 |
| 20260509004040 | 62 | 276 | 9.0 | 20.0 | 0.00 | 0.25 | 0.06 | 86 | 999.7 |
| 20260509003539 | 62 | 300 | 11.0 | 20.0 | 0.00 | 0.25 | 0.06 | 85 | 999.9 |
| 20260509003053 | 62 | 269 | 12.0 | 21.0 | 0.00 | 0.25 | 0.06 | 85 | 1000.2 |
| 20260509002538 | 61 | 312 | 13.0 | 21.0 | 0.00 | 0.25 | 0.06 | 86 | 1000.1 |
| 20260509002040 | 61 | 269 | 11.0 | 20.0 | 0.00 | 0.25 | 0.06 | 87 | 1000.1 |
| 20260509001548 | 61 | 294 | 10.0 | 20.0 | 0.00 | 0.24 | 0.05 | 89 | 1000.1 |
| 20260509001040 | 60 | 312 | 13.0 | 20.0 | 0.00 | 0.24 | 0.05 | 89 | 1000.1 |
| 20260509000539 | 60 | 321 | 10.0 | 20.0 | 0.00 | 0.24 | 0.05 | 92 | 1000.0 |
| 20260509000050 | 59 | 294 | 10.0 | 20.0 | 0.00 | 0.24 | 0.05 | 93 | 1000.0 |
| 20260508235542 | 59 | 281 | 12.0 | 24.0 | 0.00 | 0.24 | 0.05 | 92 | 999.9 |
| 20260508235041 | 59 | 306 | 13.0 | 24.0 | 0.00 | 0.24 | 0.05 | 91 | 999.9 |
| 20260508234549 | 60 | 261 | 12.0 | 32.0 | 0.00 | 0.24 | 0.05 | 88 | 999.8 |
| 20260508234040 | 61 | 292 | 17.0 | 32.0 | 0.00 | 0.24 | 0.05 | 83 | 999.6 |
| 20260508233539 | 62 | 292 | 14.0 | 27.0 | 0.00 | 0.24 | 0.05 | 78 | 999.5 |
| 20260508233050 | 63 | 338 | 10.0 | 20.0 | 0.00 | 0.24 | 0.05 | 79 | 999.4 |
| 20260508232546 | 62 | 274 | 10.0 | 20.0 | 0.00 | 0.24 | 0.05 | 80 | 999.5 |
| 20260508232039 | 62 | 300 | 8.0 | 19.0 | 0.00 | 0.24 | 0.05 | 80 | 999.7 |
| 20260508231554 | 62 | 306 | 10.0 | 19.0 | 0.00 | 0.24 | 0.05 | 80 | 999.8 |
| 20260508231039 | 62 | 277 | 9.0 | 18.0 | 0.00 | 0.24 | 0.05 | 78 | 999.8 |
| 20260508230539 | 62 | 257 | 7.0 | 14.0 | 0.00 | 0.24 | 0.05 | 77 | 999.6 |
| 20260508230046 | 63 | 279 | 6.0 | 14.0 | 0.00 | 0.24 | 0.05 | 78 | 999.6 |
| 20260508225539 | 63 | 317 | 3.0 | 9.0 | 0.00 | 0.24 | 0.05 | 78 | 999.7 |
| 20260508225040 | 63 | 249 | 2.0 | 11.0 | 0.00 | 0.24 | 0.05 | 78 | 999.6 |
| 20260508224545 | 63 | 274 | 4.0 | 11.0 | 0.00 | 0.24 | 0.05 | 78 | 999.8 |
| 20260508224039 | 63 | 289 | 6.0 | 11.0 | 0.00 | 0.24 | 0.05 | 77 | 1000.1 |
| 20260508223539 | 63 | 271 | 6.0 | 10.0 | 0.00 | 0.24 | 0.05 | 79 | 1000.1 |
| 20260508223050 | 63 | 226 | 4.0 | 11.0 | 0.00 | 0.24 | 0.05 | 79 | 1000.3 |
| 20260508222540 | 63 | 273 | 4.0 | 11.0 | 0.00 | 0.24 | 0.05 | 78 | 1000.1 |
| 20260508222039 | 63 | 259 | 4.0 | 9.0 | 0.00 | 0.24 | 0.05 | 78 | 1000.2 |